Вернуться в каталог

STARLINK-34275

АктивенСвязьVLEO
NORAD 64413·PAYLOAD·🇺🇸 United States

Запущен Jun 17, 2025 с Vandenberg Space Force Base

Loading…

Ближайшие Пролёты (ближайшие 24 часа)

TLE

СвежийSource: CelesTrak SupGP

Эпоха: Sep 15, 2026, 03:12 UTC

1 64413C 25129B   26258.13381944  .00035491  00000+0  12346-2 0  2580
2 64413  69.9991 314.9692 0003495 264.7043 329.9220 15.29559561    10

Отслеживайте STARLINK-34275 в реальном времени с AllMySat

Download on the App Store